Weather History for Dumas, TX

Change the Weather History Date:

Tuesday, November 5, 2013

  Actual Average (KBGD) Record (KBGD)
Temperature  
Mean Temperature 49 °F 53 °F  
Max Temperature 64 °F 66 °F 81 °F (1977)
Min Temperature 34 °F 40 °F 18 °F (1959)
Degree Days  
Heating Degree Days 16 12  
Month to date heating degree days 58  
Since 1 July heating degree days 279  
Cooling Degree Days 0 0  
Month to date cooling degree days 0  
Year to date cooling degree days 1835  
Moisture  
Dew Point 42 °F    
Average Humidity 82    
Maximum Humidity 99    
Minimum Humidity 54    
Precipitation  
Precipitation 0.27 in 0.03 in 0.38 in (2013)
Month to date precipitation 0.19  
Year to date precipitation 20.30  
Snow  
Snow 0.00 in - - ()
Month to date snowfall  
Since 1 July snowfall  
Since 1 September snowfall  
Snow Depth -    
Sea Level Pressure  
Sea Level Pressure 29.96 in    
Wind  
Wind Speed 12 mph (NE)    
Max Wind Speed 29 mph    
Max Gust Speed 37 mph    
Visibility 8 miles    
Events Rain    
T = Trace of Precipitation, MM = Missing Value Source: NWS Daily Summary

Daily Weather History Graph

Daily Weather History Graph

Search for Another Location

Airport:

Trip Planner

Search our weather history database for the weather conditions in past years. The results will help you decide how hot, cold, wet, or windy it might be!

Date:

Astronomy

Nov. 05, 2013 Rise Set
Actual Time 7:14 AM CST 5:48 PM CST
Civil Twilight 6:47 AM CST 6:14 PM CST
Nautical Twilight 6:17 AM CST 6:45 PM CST
Astronomical Twilight 5:47 AM CST 7:15 PM CST
Moon 9:28 AM CST (11/5) 7:54 PM CST (11/5)
Length of Visible Light 11h 27m
Length of Day
10h 33m
Waxing Crescent, 7% of the Moon is Illuminated
Nov 5
Waxing Crescent
Nov 9
First Quarter
Nov 17
Full
Nov 25
Last Quarter
Dec 2
New

Hourly Weather History & Observations

Time (CST) Temp. Windchill Dew Point Humidity Pressure Visibility Wind Dir Wind Speed Gust Speed Precip Events Conditions
12:15 AM 49.1 °F - 38.3 °F 66% 29.92 in 10.0 mi ESE 11.5 mph - N/A   Overcast
12:35 AM 49.1 °F - 38.8 °F 68% 29.92 in 10.0 mi ESE 10.4 mph - N/A   Mostly Cloudy
12:55 AM 49.1 °F - 38.8 °F 68% 29.93 in 10.0 mi SE 6.9 mph - N/A   Mostly Cloudy
1:15 AM 48.6 °F - 40.1 °F 73% 29.93 in 10.0 mi SE 3.5 mph - N/A   Light Drizzle
1:35 AM 45.5 °F 44.2 °F 41.4 °F 85% 29.93 in 10.0 mi North 3.5 mph - 0.01 in Rain Rain
1:55 AM 45.5 °F 43.2 °F 42.8 °F 90% 29.93 in 10.0 mi NNW 4.6 mph - 0.02 in Rain Rain
2:15 AM 45.0 °F 42.6 °F 42.8 °F 92% 29.92 in 10.0 mi NNE 4.6 mph - 0.01 in   Overcast
2:35 AM 44.8 °F 41.6 °F 42.8 °F 93% 29.91 in 10.0 mi NNE 5.8 mph - 0.01 in   Overcast
2:55 AM 44.8 °F 41.0 °F 42.3 °F 91% 29.90 in 10.0 mi ENE 6.9 mph - 0.01 in   Overcast
3:15 AM 45.0 °F 43.5 °F 43.0 °F 93% 29.91 in 10.0 mi North 3.5 mph - N/A   Overcast
3:35 AM 44.8 °F 43.3 °F 42.8 °F 93% 29.91 in 5.0 mi NE 3.5 mph - 0.02 in Rain Heavy Rain
3:55 AM 44.6 °F 42.2 °F 43.2 °F 95% 29.91 in 4.0 mi East 4.6 mph - 0.08 in Rain Light Rain
4:15 AM 44.6 °F 40.7 °F 43.7 °F 97% 29.88 in 4.0 mi East 6.9 mph - 0.07 in Rain Heavy Rain
4:35 AM 45.9 °F 42.3 °F 45.0 °F 97% 29.88 in 7.0 mi ESE 6.9 mph - 0.08 in Rain Light Rain
4:55 AM 45.5 °F 41.8 °F 44.6 °F 97% 29.87 in 7.0 mi ESE 6.9 mph - 0.08 in   Mostly Cloudy
5:15 AM 45.7 °F 42.7 °F 44.6 °F 96% 29.88 in 10.0 mi SE 5.8 mph - N/A   Mostly Cloudy
5:35 AM 45.9 °F 42.3 °F 45.0 °F 97% 29.89 in 5.0 mi SE 6.9 mph - 0.04 in Rain Rain
5:55 AM 46.4 °F 42.9 °F 45.5 °F 97% 29.88 in 5.0 mi SE 6.9 mph - 0.05 in Rain Light Rain
6:15 AM 47.3 °F - 46.6 °F 97% 29.88 in 5.0 mi SSE 8.1 mph - N/A   Mostly Cloudy
6:35 AM 48.0 °F - 47.3 °F 97% 29.87 in 4.0 mi ESE 6.9 mph - N/A   Mostly Cloudy
6:55 AM 48.0 °F - 47.5 °F 98% 29.86 in 2.0 mi ESE 8.1 mph - N/A   Overcast
7:15 AM 48.6 °F - 48.2 °F 99% 29.87 in 0.8 mi SE 8.1 mph - N/A   Overcast
7:35 AM 51.1 °F - 50.9 °F 99% 29.87 in 4.0 mi SSE 12.7 mph - N/A   Overcast
7:55 AM 51.8 °F - 50.5 °F 95% 29.87 in 4.0 mi SSE 13.8 mph - N/A Rain Light Rain
8:15 AM 51.8 °F - 50.5 °F 95% 29.87 in 5.0 mi South 15.0 mph - N/A Rain Light Rain
8:35 AM 52.0 °F - 50.7 °F 95% 29.89 in 5.0 mi South 9.2 mph - 0.01 in   Light Drizzle
8:55 AM 52.2 °F - 50.9 °F 95% 29.91 in 5.0 mi SSW 11.5 mph - 0.01 in   Overcast
9:15 AM 52.2 °F - 51.1 °F 96% 29.91 in 4.0 mi South 10.4 mph - N/A Rain Light Rain
9:35 AM 52.0 °F - 51.1 °F 97% 29.92 in 4.0 mi South 10.4 mph - 0.02 in Rain Light Rain
9:55 AM 52.7 °F - 51.8 °F 97% 29.90 in 5.0 mi South 11.5 mph - 0.02 in   Mostly Cloudy
10:15 AM 53.1 °F - 52.0 °F 96% 29.91 in 5.0 mi South 12.7 mph - N/A   Mostly Cloudy
10:35 AM 53.1 °F - 52.0 °F 96% 29.91 in 4.0 mi South 12.7 mph - N/A   Overcast
10:55 AM 53.6 °F - 52.5 °F 96% 29.91 in 3.0 mi South 13.8 mph 18.4 mph N/A   Overcast
11:15 AM 54.0 °F - 52.9 °F 96% 29.91 in 4.0 mi South 13.8 mph 18.4 mph N/A   Overcast
11:35 AM 54.5 °F - 52.9 °F 94% 29.91 in 5.0 mi SSW 13.8 mph 19.6 mph N/A   Overcast
11:55 AM 56.5 °F - 54.1 °F 92% 29.90 in 7.0 mi SSW 15.0 mph - N/A   Overcast
12:15 PM 57.6 °F - 53.8 °F 87% 29.88 in 7.0 mi SSW 17.3 mph - N/A   Mostly Cloudy
12:35 PM 59.5 °F - 54.3 °F 83% 29.88 in 10.0 mi SSW 19.6 mph 25.3 mph N/A   Mostly Cloudy
12:55 PM 60.3 °F - 53.6 °F 79% 29.87 in 10.0 mi SSW 17.3 mph - N/A   Mostly Cloudy
1:15 PM 61.7 °F - 52.5 °F 72% 29.87 in 10.0 mi SW 17.3 mph - N/A   Mostly Cloudy
1:35 PM 62.8 °F - 52.0 °F 68% 29.86 in 10.0 mi SW 17.3 mph - N/A   Scattered Clouds
1:55 PM 63.0 °F - 50.5 °F 64% 29.86 in 10.0 mi WSW 13.8 mph 19.6 mph N/A   Scattered Clouds
2:15 PM 64.4 °F - 49.1 °F 58% 29.86 in 10.0 mi WSW 16.1 mph - N/A   Scattered Clouds
2:35 PM 64.0 °F - 48.7 °F 57% 29.86 in 10.0 mi West 13.8 mph - N/A   Mostly Cloudy
2:55 PM 64.2 °F - 47.1 °F 54% 29.87 in 10.0 mi West 15.0 mph - N/A   Scattered Clouds
3:15 PM 52.9 °F - 42.8 °F 69% 29.90 in 10.0 mi North 28.8 mph 34.5 mph N/A   Mostly Cloudy
3:35 PM 50.7 °F - 42.1 °F 72% 29.91 in 10.0 mi North 24.2 mph 33.4 mph N/A   Scattered Clouds
3:55 PM 50.7 °F - 40.1 °F 67% 29.93 in 10.0 mi North 26.5 mph 36.8 mph N/A   Clear
4:15 PM 50.0 °F - 38.3 °F 64% 29.94 in 10.0 mi North 27.6 mph 35.7 mph N/A   Clear
4:35 PM 48.9 °F - 37.6 °F 65% 29.95 in 10.0 mi North 26.5 mph 35.7 mph N/A   Clear
4:55 PM 47.3 °F - 36.7 °F 67% 29.96 in 10.0 mi North 23.0 mph 34.5 mph N/A   Clear
5:15 PM 46.8 °F - 35.8 °F 66% 29.98 in 10.0 mi North 28.8 mph 34.5 mph N/A   Scattered Clouds
5:35 PM 45.1 °F 36.9 °F 35.2 °F 68% 30.01 in 10.0 mi North 21.9 mph 33.4 mph N/A   Scattered Clouds
5:55 PM 43.9 °F 34.7 °F 34.7 °F 70% 30.01 in 10.0 mi North 24.2 mph 33.4 mph N/A   Clear
6:15 PM 42.6 °F 32.8 °F 33.8 °F 71% 30.03 in 10.0 mi North 25.3 mph 34.5 mph N/A   Clear
6:35 PM 41.9 °F 32.1 °F 33.1 °F 71% 30.05 in 10.0 mi North 24.2 mph 32.2 mph N/A   Clear
6:55 PM 41.2 °F 30.7 °F 32.2 °F 70% 30.06 in 10.0 mi North 26.5 mph 34.5 mph N/A   Clear
7:15 PM 40.5 °F 30.4 °F 31.8 °F 71% 30.08 in 10.0 mi North 23.0 mph 28.8 mph N/A   Clear
7:35 PM 40.1 °F 31.6 °F 32.0 °F 73% 30.09 in 10.0 mi North 16.1 mph 27.6 mph N/A   Clear
7:55 PM 39.6 °F 29.7 °F 32.0 °F 74% 30.10 in 10.0 mi North 20.7 mph 29.9 mph N/A   Clear
8:15 PM 39.0 °F 28.5 °F 30.7 °F 72% 30.11 in 10.0 mi North 23.0 mph 31.1 mph N/A   Clear
8:35 PM 37.9 °F 27.9 °F 31.1 °F 76% 30.12 in 10.0 mi North 19.6 mph 25.3 mph N/A   Clear
8:55 PM 37.4 °F 27.2 °F 31.1 °F 78% 30.13 in 10.0 mi North 19.6 mph 32.2 mph N/A   Clear
9:15 PM 36.5 °F 27.0 °F 31.1 °F 81% 30.13 in 10.0 mi North 16.1 mph - N/A   Clear
9:35 PM 35.6 °F 27.5 °F 31.5 °F 85% 30.14 in 10.0 mi North 11.5 mph - N/A   Clear
9:55 PM 34.9 °F 26.6 °F 31.1 °F 86% 30.15 in 10.0 mi NNW 11.5 mph - N/A   Clear
10:15 PM 34.7 °F 25.9 °F 31.1 °F 87% 30.15 in 10.0 mi NNW 12.7 mph - N/A   Clear
10:35 PM 35.2 °F 25.8 °F 31.1 °F 85% 30.15 in 10.0 mi NNW 15.0 mph - N/A   Clear
10:55 PM 35.2 °F 25.4 °F 30.0 °F 81% 30.16 in 10.0 mi North 16.1 mph - N/A   Clear
11:15 PM 36.0 °F 25.6 °F 27.7 °F 72% 30.16 in 10.0 mi North 18.4 mph - N/A   Clear
11:35 PM 35.8 °F 25.4 °F 27.0 °F 70% 30.17 in 10.0 mi North 18.4 mph - N/A   Clear
11:55 PM 35.6 °F 26.2 °F 27.5 °F 72% 30.17 in 10.0 mi North 15.0 mph - N/A   Scattered Clouds